Year,Month,Day,Hour,Minute,Value (Times are PST for temperature in C)
2017,05,27,00,00,14.80
2017,05,27,00,01,14.70
2017,05,27,00,02,14.70
2017,05,27,00,03,14.70
2017,05,27,00,04,14.70
2017,05,27,00,05,14.60
2017,05,27,00,06,14.60
2017,05,27,00,07,14.60
2017,05,27,00,08,14.60
2017,05,27,00,09,14.50
2017,05,27,00,10,14.50
2017,05,27,00,11,14.50
2017,05,27,00,12,14.50
2017,05,27,00,13,14.50
2017,05,27,00,14,14.50
2017,05,27,00,15,14.50
2017,05,27,00,16,14.40
2017,05,27,00,17,14.40
2017,05,27,00,18,14.40
2017,05,27,00,19,14.40
2017,05,27,00,20,14.40
2017,05,27,00,21,14.40
2017,05,27,00,22,14.30
2017,05,27,00,23,14.30
2017,05,27,00,24,14.20
2017,05,27,00,25,14.20
2017,05,27,00,26,14.20
2017,05,27,00,27,14.20
2017,05,27,00,28,14.20
2017,05,27,00,29,14.20
2017,05,27,00,30,14.20
2017,05,27,00,31,14.20
2017,05,27,00,32,14.20
2017,05,27,00,33,14.10
2017,05,27,00,34,14.10
2017,05,27,00,35,14.10
2017,05,27,00,36,14.10
2017,05,27,00,37,14.10
2017,05,27,00,38,14.10
2017,05,27,00,39,14.00
2017,05,27,00,40,14.00
2017,05,27,00,41,14.00
2017,05,27,00,42,14.00
2017,05,27,00,43,14.00
2017,05,27,00,44,14.00
2017,05,27,00,45,14.00
2017,05,27,00,46,14.00
2017,05,27,00,47,13.90
2017,05,27,00,48,13.90
2017,05,27,00,49,13.90
2017,05,27,00,50,13.90
2017,05,27,00,51,13.90
2017,05,27,00,52,13.90
2017,05,27,00,53,13.90
2017,05,27,00,54,13.90
2017,05,27,00,55,13.80
2017,05,27,00,56,13.80
2017,05,27,00,57,13.80
2017,05,27,00,58,13.80
2017,05,27,00,59,13.80
2017,05,27,01,00,13.80
2017,05,27,01,01,13.70
2017,05,27,01,02,13.70
2017,05,27,01,03,13.70
2017,05,27,01,04,13.70
2017,05,27,01,05,13.70
2017,05,27,01,06,13.70
2017,05,27,01,07,13.70
2017,05,27,01,08,13.70
2017,05,27,01,09,13.70
2017,05,27,01,10,13.70
2017,05,27,01,11,13.60
2017,05,27,01,12,13.60
2017,05,27,01,13,13.60
2017,05,27,01,14,13.60
2017,05,27,01,15,13.60
2017,05,27,01,16,13.60
2017,05,27,01,17,13.60
2017,05,27,01,18,13.60
2017,05,27,01,19,13.60
2017,05,27,01,20,13.60
2017,05,27,01,21,13.60
2017,05,27,01,22,13.60
2017,05,27,01,23,13.60
2017,05,27,01,24,13.60
2017,05,27,01,25,13.60
2017,05,27,01,26,13.60
2017,05,27,01,27,13.60
2017,05,27,01,28,13.50
2017,05,27,01,29,13.50
2017,05,27,01,30,13.50
2017,05,27,01,31,13.50
2017,05,27,01,32,13.50
2017,05,27,01,33,13.50
2017,05,27,01,34,13.50
2017,05,27,01,35,13.50
2017,05,27,01,36,13.50
2017,05,27,01,37,13.50
2017,05,27,01,38,13.40
2017,05,27,01,39,13.40
2017,05,27,01,40,13.40
2017,05,27,01,41,13.40
2017,05,27,01,42,13.40
2017,05,27,01,43,13.30
2017,05,27,01,44,13.30
2017,05,27,01,45,13.30
2017,05,27,01,46,13.30
2017,05,27,01,47,13.30
2017,05,27,01,48,13.30
2017,05,27,01,49,13.30
2017,05,27,01,50,13.30
2017,05,27,01,51,13.20
2017,05,27,01,52,13.20
2017,05,27,01,53,13.20
2017,05,27,01,54,13.20
2017,05,27,01,55,13.10
2017,05,27,01,56,13.10
2017,05,27,01,57,13.10
2017,05,27,01,58,13.10
2017,05,27,01,59,13.00
2017,05,27,02,00,13.00
2017,05,27,02,01,13.00
2017,05,27,02,02,13.00
2017,05,27,02,03,13.00
2017,05,27,02,04,13.00
2017,05,27,02,05,12.90
2017,05,27,02,06,12.90
2017,05,27,02,07,12.90
2017,05,27,02,08,12.90
2017,05,27,02,09,12.90
2017,05,27,02,10,12.80
2017,05,27,02,11,12.80
2017,05,27,02,12,12.80
2017,05,27,02,13,12.80
2017,05,27,02,14,12.80
2017,05,27,02,15,12.80
2017,05,27,02,16,12.80
2017,05,27,02,17,12.80
2017,05,27,02,18,12.80
2017,05,27,02,19,12.80
2017,05,27,02,20,12.80
2017,05,27,02,21,12.80
2017,05,27,02,22,12.80
2017,05,27,02,23,12.80
2017,05,27,02,24,12.80
2017,05,27,02,25,12.80
2017,05,27,02,26,12.70
2017,05,27,02,27,12.70
2017,05,27,02,28,12.70
2017,05,27,02,29,12.70
2017,05,27,02,30,12.70
2017,05,27,02,31,12.80
2017,05,27,02,32,12.80
2017,05,27,02,33,12.70
2017,05,27,02,34,12.70
2017,05,27,02,35,12.70
2017,05,27,02,36,12.70
2017,05,27,02,37,12.70
2017,05,27,02,38,12.60
2017,05,27,02,39,12.60
2017,05,27,02,40,12.60
2017,05,27,02,41,12.50
2017,05,27,02,42,12.50
2017,05,27,02,43,12.50
2017,05,27,02,44,12.50
2017,05,27,02,45,12.50
2017,05,27,02,46,12.40
2017,05,27,02,47,12.40
2017,05,27,02,48,12.40
2017,05,27,02,49,12.40
2017,05,27,02,50,12.40
2017,05,27,02,51,12.40
2017,05,27,02,52,12.40
2017,05,27,02,53,12.40
2017,05,27,02,54,12.40
2017,05,27,02,55,12.30
2017,05,27,02,56,12.30
2017,05,27,02,57,12.30
2017,05,27,02,58,12.30
2017,05,27,02,59,12.30
2017,05,27,03,00,12.30
2017,05,27,03,01,12.20
2017,05,27,03,02,12.20
2017,05,27,03,03,12.20
2017,05,27,03,04,12.20
2017,05,27,03,05,12.20
2017,05,27,03,06,12.20
2017,05,27,03,07,12.10
2017,05,27,03,08,12.10
2017,05,27,03,09,12.10
2017,05,27,03,10,12.10
2017,05,27,03,11,12.10
2017,05,27,03,12,12.10
2017,05,27,03,13,12.10
2017,05,27,03,14,12.10
2017,05,27,03,15,12.10
2017,05,27,03,16,12.10
2017,05,27,03,17,12.10
2017,05,27,03,18,12.10
2017,05,27,03,19,12.10
2017,05,27,03,20,12.10
2017,05,27,03,21,12.10
2017,05,27,03,22,12.10
2017,05,27,03,23,12.20
2017,05,27,03,24,12.20
2017,05,27,03,25,12.20
2017,05,27,03,26,12.20
2017,05,27,03,27,12.30
2017,05,27,03,28,12.30
2017,05,27,03,29,12.30
2017,05,27,03,30,12.30
2017,05,27,03,31,12.30
2017,05,27,03,32,12.30
2017,05,27,03,33,12.30
2017,05,27,03,34,12.30
2017,05,27,03,35,12.30
2017,05,27,03,36,12.30
2017,05,27,03,37,12.30
2017,05,27,03,38,12.30
2017,05,27,03,39,12.30
2017,05,27,03,40,12.30
2017,05,27,03,41,12.30
2017,05,27,03,42,12.30
2017,05,27,03,43,12.30
2017,05,27,03,44,12.30
2017,05,27,03,45,12.30
2017,05,27,03,46,12.30
2017,05,27,03,47,12.30
2017,05,27,03,48,12.30
2017,05,27,03,49,12.30
2017,05,27,03,50,12.30
2017,05,27,03,51,12.30
2017,05,27,03,52,12.30
2017,05,27,03,53,12.30
2017,05,27,03,54,12.20
2017,05,27,03,55,12.20
2017,05,27,03,56,12.20
2017,05,27,03,57,12.20
2017,05,27,03,58,12.10
2017,05,27,03,59,12.10
2017,05,27,04,00,12.10
2017,05,27,04,01,12.00
2017,05,27,04,02,12.00
2017,05,27,04,03,12.00
2017,05,27,04,04,12.00
2017,05,27,04,05,12.00
2017,05,27,04,06,12.00
2017,05,27,04,07,12.00
2017,05,27,04,08,11.90
2017,05,27,04,09,11.90
2017,05,27,04,10,11.90
2017,05,27,04,11,11.90
2017,05,27,04,12,11.90
2017,05,27,04,13,11.90
2017,05,27,04,14,11.90
2017,05,27,04,15,11.90
2017,05,27,04,16,11.90
2017,05,27,04,17,11.90
2017,05,27,04,18,11.80
2017,05,27,04,19,11.80
2017,05,27,04,20,11.80
2017,05,27,04,21,11.80
2017,05,27,04,22,11.80
2017,05,27,04,23,11.80
2017,05,27,04,24,11.80
2017,05,27,04,25,11.80
2017,05,27,04,26,11.70
2017,05,27,04,27,11.70
2017,05,27,04,28,11.70
2017,05,27,04,29,11.70
2017,05,27,04,30,11.70
2017,05,27,04,31,11.60
2017,05,27,04,32,11.60
2017,05,27,04,33,11.60
2017,05,27,04,34,11.60
2017,05,27,04,35,11.60
2017,05,27,04,36,11.60
2017,05,27,04,37,11.60
2017,05,27,04,38,11.50
2017,05,27,04,39,11.40
2017,05,27,04,40,11.40
2017,05,27,04,41,11.40
2017,05,27,04,42,11.40
2017,05,27,04,43,11.40
2017,05,27,04,44,11.40
2017,05,27,04,45,11.30
2017,05,27,04,46,11.30
2017,05,27,04,47,11.30
2017,05,27,04,48,11.30
2017,05,27,04,49,11.20
2017,05,27,04,50,11.20
2017,05,27,04,51,11.20
2017,05,27,04,52,11.20
2017,05,27,04,53,11.10
2017,05,27,04,54,11.10
2017,05,27,04,55,11.10
2017,05,27,04,56,11.10
2017,05,27,04,57,11.10
2017,05,27,04,58,11.10
2017,05,27,04,59,11.10
2017,05,27,05,00,11.10
2017,05,27,05,01,11.10
2017,05,27,05,02,11.10
2017,05,27,05,03,11.10
2017,05,27,05,04,11.10
2017,05,27,05,05,11.10
2017,05,27,05,06,11.10
2017,05,27,05,07,11.10
2017,05,27,05,08,11.10
2017,05,27,05,09,11.10
2017,05,27,05,10,11.10
2017,05,27,05,11,11.10
2017,05,27,05,12,11.10
2017,05,27,05,13,11.10
2017,05,27,05,14,11.10
2017,05,27,05,15,11.10
2017,05,27,05,16,11.10
2017,05,27,05,17,11.10
2017,05,27,05,18,11.10
2017,05,27,05,19,11.10
2017,05,27,05,20,11.10
2017,05,27,05,21,11.10
2017,05,27,05,22,11.10
2017,05,27,05,23,11.10
2017,05,27,05,24,10.90
2017,05,27,05,25,10.90
2017,05,27,05,26,10.90
2017,05,27,05,27,10.90
2017,05,27,05,28,10.90
2017,05,27,05,29,10.90
2017,05,27,05,30,10.90
2017,05,27,05,31,10.90
2017,05,27,05,32,10.90
2017,05,27,05,33,10.80
2017,05,27,05,34,10.80
2017,05,27,05,35,10.80
2017,05,27,05,36,10.80
2017,05,27,05,37,10.80
2017,05,27,05,38,10.70
2017,05,27,05,39,10.70
2017,05,27,05,40,10.70
2017,05,27,05,41,10.70
2017,05,27,05,42,10.70
2017,05,27,05,43,10.70
2017,05,27,05,44,10.70
2017,05,27,05,45,10.70
2017,05,27,05,46,10.70
2017,05,27,05,47,10.70
2017,05,27,05,48,10.70
2017,05,27,05,49,10.70
2017,05,27,05,50,10.70
2017,05,27,05,51,10.80
2017,05,27,05,52,10.80
2017,05,27,05,53,10.80
2017,05,27,05,54,10.80
2017,05,27,05,55,10.80
2017,05,27,05,56,10.80
2017,05,27,05,57,10.90
2017,05,27,05,58,10.90
2017,05,27,05,59,10.90
2017,05,27,06,00,10.90
2017,05,27,06,01,10.90
2017,05,27,06,02,10.90
2017,05,27,06,03,10.90
2017,05,27,06,04,10.90
2017,05,27,06,05,10.90
2017,05,27,06,06,10.90
2017,05,27,06,07,10.90
2017,05,27,06,08,11.00
2017,05,27,06,09,11.10
2017,05,27,06,10,11.10
2017,05,27,06,11,11.10
2017,05,27,06,12,11.10
2017,05,27,06,13,11.10
2017,05,27,06,14,11.20
2017,05,27,06,15,11.20
2017,05,27,06,16,11.30
2017,05,27,06,17,11.30
2017,05,27,06,18,11.30
2017,05,27,06,19,11.40
2017,05,27,06,20,11.40
2017,05,27,06,21,11.40
2017,05,27,06,22,11.40
2017,05,27,06,23,11.50
2017,05,27,06,24,11.60
2017,05,27,06,25,11.60
2017,05,27,06,26,11.60
2017,05,27,06,27,11.60
2017,05,27,06,28,11.60
2017,05,27,06,29,11.60
2017,05,27,06,30,11.70
2017,05,27,06,31,11.70
2017,05,27,06,32,11.70
2017,05,27,06,33,11.70
2017,05,27,06,34,11.70
2017,05,27,06,35,11.70
2017,05,27,06,36,11.70
2017,05,27,06,37,11.70
2017,05,27,06,38,11.70
2017,05,27,06,39,11.80
2017,05,27,06,40,11.80
2017,05,27,06,41,11.80
2017,05,27,06,42,11.80
2017,05,27,06,43,11.80
2017,05,27,06,44,11.80
2017,05,27,06,45,11.90
2017,05,27,06,46,11.90
2017,05,27,06,47,11.90
2017,05,27,06,48,12.00
2017,05,27,06,49,12.00
2017,05,27,06,50,12.10
2017,05,27,06,51,12.10
2017,05,27,06,52,12.20
2017,05,27,06,53,12.20
2017,05,27,06,54,12.30
2017,05,27,06,55,12.30
2017,05,27,06,56,12.40
2017,05,27,06,57,12.40
2017,05,27,06,58,12.50
2017,05,27,06,59,12.60
2017,05,27,07,00,12.70
2017,05,27,07,01,12.80
2017,05,27,07,02,12.80
2017,05,27,07,03,12.90
2017,05,27,07,04,13.00
2017,05,27,07,05,13.10
2017,05,27,07,06,13.20
2017,05,27,07,07,13.30
2017,05,27,07,08,13.40
2017,05,27,07,09,13.50
2017,05,27,07,10,13.50
2017,05,27,07,11,13.60
2017,05,27,07,12,13.70
2017,05,27,07,13,13.90
2017,05,27,07,14,14.00
2017,05,27,07,15,14.10
2017,05,27,07,16,14.20
2017,05,27,07,17,14.40
2017,05,27,07,18,14.50
2017,05,27,07,19,14.50
2017,05,27,07,20,14.60
2017,05,27,07,21,14.70
2017,05,27,07,22,14.70
2017,05,27,07,23,14.80
2017,05,27,07,24,14.80
2017,05,27,07,25,14.90
2017,05,27,07,26,15.00
2017,05,27,07,27,15.10
2017,05,27,07,28,15.10
2017,05,27,07,29,15.20
2017,05,27,07,30,15.30
2017,05,27,07,31,15.40
2017,05,27,07,32,15.50
2017,05,27,07,33,15.60
2017,05,27,07,34,15.70
2017,05,27,07,35,15.70
2017,05,27,07,36,15.80
2017,05,27,07,37,15.80
2017,05,27,07,38,15.80
2017,05,27,07,39,15.80
2017,05,27,07,40,15.80
2017,05,27,07,41,15.90
2017,05,27,07,42,16.00
2017,05,27,07,43,16.10
2017,05,27,07,44,16.10
2017,05,27,07,45,16.20
2017,05,27,07,46,16.30
2017,05,27,07,47,16.50
2017,05,27,07,48,16.60
2017,05,27,07,49,16.80
2017,05,27,07,50,16.90
2017,05,27,07,51,17.00
2017,05,27,07,52,17.10
2017,05,27,07,53,17.10
2017,05,27,07,54,17.00
2017,05,27,07,55,17.00
2017,05,27,07,56,17.00
2017,05,27,07,57,17.10
2017,05,27,07,58,17.10
2017,05,27,07,59,17.10
2017,05,27,08,00,17.10
2017,05,27,08,01,17.20
2017,05,27,08,02,17.20
2017,05,27,08,03,17.20
2017,05,27,08,04,17.30
2017,05,27,08,05,17.30
2017,05,27,08,06,17.30
2017,05,27,08,07,17.30
2017,05,27,08,08,17.30
2017,05,27,08,09,17.40
2017,05,27,08,10,17.40
2017,05,27,08,11,17.50
2017,05,27,08,12,17.50
2017,05,27,08,13,17.50
2017,05,27,08,14,17.50
2017,05,27,08,15,17.60
2017,05,27,08,16,17.60
2017,05,27,08,17,17.70
2017,05,27,08,18,17.80
2017,05,27,08,19,17.80
2017,05,27,08,20,17.90
2017,05,27,08,21,18.00
2017,05,27,08,22,18.10
2017,05,27,08,23,18.10
2017,05,27,08,24,18.10
2017,05,27,08,25,18.20
2017,05,27,08,26,18.20
2017,05,27,08,27,18.30
2017,05,27,08,28,18.50
2017,05,27,08,29,18.50
2017,05,27,08,30,18.60
2017,05,27,08,31,18.70
2017,05,27,08,32,18.70
2017,05,27,08,33,18.80
2017,05,27,08,34,18.90
2017,05,27,08,35,18.90
2017,05,27,08,36,18.90
2017,05,27,08,37,18.90
2017,05,27,08,38,18.80
2017,05,27,08,39,18.80
2017,05,27,08,40,18.70
2017,05,27,08,41,18.70
2017,05,27,08,42,18.70
2017,05,27,08,43,18.60
2017,05,27,08,44,18.60
2017,05,27,08,45,18.50
2017,05,27,08,46,18.50
2017,05,27,08,47,18.40
2017,05,27,08,48,18.40
2017,05,27,08,49,18.30
2017,05,27,08,50,18.30
2017,05,27,08,51,18.30
2017,05,27,08,52,18.30
2017,05,27,08,53,18.30
2017,05,27,08,54,18.30
2017,05,27,08,55,18.30
2017,05,27,08,56,18.30
2017,05,27,08,57,18.30
2017,05,27,08,58,18.30
2017,05,27,08,59,18.30
2017,05,27,09,00,18.30
2017,05,27,09,01,18.40
2017,05,27,09,02,18.40
2017,05,27,09,03,18.50
2017,05,27,09,04,18.50
2017,05,27,09,05,18.60
2017,05,27,09,06,18.60
2017,05,27,09,07,18.70
2017,05,27,09,08,18.80
2017,05,27,09,09,19.00
2017,05,27,09,10,19.10
2017,05,27,09,11,19.30
2017,05,27,09,12,19.40
2017,05,27,09,13,19.60
2017,05,27,09,14,19.70
2017,05,27,09,15,19.80
2017,05,27,09,16,19.90
2017,05,27,09,17,19.90
2017,05,27,09,18,20.00
2017,05,27,09,19,20.10
2017,05,27,09,20,20.20
2017,05,27,09,21,20.20
2017,05,27,09,22,20.20
2017,05,27,09,23,20.20
2017,05,27,09,24,20.30
2017,05,27,09,25,20.40
2017,05,27,09,26,20.40
2017,05,27,09,27,20.30
2017,05,27,09,28,20.30
2017,05,27,09,29,20.30
2017,05,27,09,30,20.20
2017,05,27,09,31,20.30
2017,05,27,09,32,20.20
2017,05,27,09,33,20.00
2017,05,27,09,34,19.90
2017,05,27,09,35,19.80
2017,05,27,09,36,19.70
2017,05,27,09,37,19.60
2017,05,27,09,38,19.60
2017,05,27,09,39,19.40
2017,05,27,09,40,19.40
2017,05,27,09,41,19.30
2017,05,27,09,42,19.10
2017,05,27,09,43,19.00
2017,05,27,09,44,18.80
2017,05,27,09,45,18.60
2017,05,27,09,46,18.40
2017,05,27,09,47,18.30
2017,05,27,09,48,18.20
2017,05,27,09,49,18.20
2017,05,27,09,50,18.10
2017,05,27,09,51,18.10
2017,05,27,09,52,18.10
2017,05,27,09,53,18.00
2017,05,27,09,54,17.90
2017,05,27,09,55,17.90
2017,05,27,09,56,17.70
2017,05,27,09,57,17.60
2017,05,27,09,58,17.60
2017,05,27,09,59,17.50
2017,05,27,10,00,17.40
2017,05,27,10,01,17.40
2017,05,27,10,02,17.40
2017,05,27,10,03,17.30
2017,05,27,10,04,17.30
2017,05,27,10,05,17.30
2017,05,27,10,06,17.30
2017,05,27,10,07,17.30
2017,05,27,10,08,17.30
2017,05,27,10,09,17.40
2017,05,27,10,10,17.30
2017,05,27,10,11,17.40
2017,05,27,10,12,17.40
2017,05,27,10,13,17.50
2017,05,27,10,14,17.70
2017,05,27,10,15,17.80
2017,05,27,10,16,17.90
2017,05,27,10,17,17.90
2017,05,27,10,18,17.90
2017,05,27,10,19,17.90
2017,05,27,10,20,17.90
2017,05,27,10,21,17.90
2017,05,27,10,22,18.00
2017,05,27,10,23,18.20
2017,05,27,10,24,18.20
2017,05,27,10,25,18.20
2017,05,27,10,26,18.20
2017,05,27,10,27,18.00
2017,05,27,10,28,17.90
2017,05,27,10,29,17.90
2017,05,27,10,30,17.90
2017,05,27,10,31,17.90
2017,05,27,10,32,18.00
2017,05,27,10,33,18.10
2017,05,27,10,34,18.20
2017,05,27,10,35,18.30
2017,05,27,10,36,18.30
2017,05,27,10,37,18.40
2017,05,27,10,38,18.50
2017,05,27,10,39,18.60
2017,05,27,10,40,18.80
2017,05,27,10,41,18.80
2017,05,27,10,42,18.70
2017,05,27,10,43,18.70
2017,05,27,10,44,18.70
2017,05,27,10,45,18.60
2017,05,27,10,46,18.60
2017,05,27,10,47,18.60
2017,05,27,10,48,18.60
2017,05,27,10,49,18.60
2017,05,27,10,50,18.60
2017,05,27,10,51,18.50
2017,05,27,10,52,18.40
2017,05,27,10,53,18.40
2017,05,27,10,54,18.30
2017,05,27,10,55,18.30
2017,05,27,10,56,18.40
2017,05,27,10,57,18.50
2017,05,27,10,58,18.50
2017,05,27,10,59,18.50
2017,05,27,11,00,18.50
2017,05,27,11,01,18.60
2017,05,27,11,02,18.60
2017,05,27,11,03,18.60
2017,05,27,11,04,18.60
2017,05,27,11,05,18.60
2017,05,27,11,06,18.60
2017,05,27,11,07,18.70
2017,05,27,11,08,18.80
2017,05,27,11,09,18.90
2017,05,27,11,10,19.00
2017,05,27,11,11,19.10
2017,05,27,11,12,19.10
2017,05,27,11,13,19.10
2017,05,27,11,14,19.10
2017,05,27,11,15,19.20
2017,05,27,11,16,19.30
2017,05,27,11,17,19.40
2017,05,27,11,18,19.40
2017,05,27,11,19,19.40
2017,05,27,11,20,19.40
2017,05,27,11,21,19.30
2017,05,27,11,22,19.30
2017,05,27,11,23,19.30
2017,05,27,11,24,19.40
2017,05,27,11,25,19.60
2017,05,27,11,26,19.70
2017,05,27,11,27,19.90
2017,05,27,11,28,19.90
2017,05,27,11,29,19.90
2017,05,27,11,30,20.00
2017,05,27,11,31,20.20
2017,05,27,11,32,20.20
2017,05,27,11,33,20.10
2017,05,27,11,34,19.90
2017,05,27,11,35,19.90
2017,05,27,11,36,19.90
2017,05,27,11,37,19.90
2017,05,27,11,38,20.00
2017,05,27,11,39,20.10
2017,05,27,11,40,20.10
2017,05,27,11,41,20.10
2017,05,27,11,42,19.90
2017,05,27,11,43,19.70
2017,05,27,11,44,19.70
2017,05,27,11,45,19.70
2017,05,27,11,46,19.70
2017,05,27,11,47,19.70
2017,05,27,11,48,19.80
2017,05,27,11,49,19.80
2017,05,27,11,50,19.70
2017,05,27,11,51,19.70
2017,05,27,11,52,19.70
2017,05,27,11,53,19.60
2017,05,27,11,54,19.60
2017,05,27,11,55,19.60
2017,05,27,11,56,19.60
2017,05,27,11,57,19.40
2017,05,27,11,58,19.30
2017,05,27,11,59,19.20
2017,05,27,12,00,19.10
2017,05,27,12,01,19.00
2017,05,27,12,02,18.80
2017,05,27,12,03,18.80
2017,05,27,12,04,18.80
2017,05,27,12,05,18.70
2017,05,27,12,06,18.70
2017,05,27,12,07,18.80
2017,05,27,12,08,18.90
2017,05,27,12,09,18.80
2017,05,27,12,10,18.70
2017,05,27,12,11,18.70
2017,05,27,12,12,18.60
2017,05,27,12,13,18.60
2017,05,27,12,14,18.70
2017,05,27,12,15,18.60
2017,05,27,12,16,18.50
2017,05,27,12,17,18.50
2017,05,27,12,18,18.50
2017,05,27,12,19,18.60
2017,05,27,12,20,18.80
2017,05,27,12,21,18.80
2017,05,27,12,22,18.80
2017,05,27,12,23,18.80
2017,05,27,12,24,18.70
2017,05,27,12,25,18.60
2017,05,27,12,26,18.60
2017,05,27,12,27,18.50
2017,05,27,12,28,18.50
2017,05,27,12,29,18.60
2017,05,27,12,30,18.60
2017,05,27,12,31,18.70
2017,05,27,12,32,18.60
2017,05,27,12,33,18.50
2017,05,27,12,34,18.50
2017,05,27,12,35,18.40
2017,05,27,12,36,18.40
2017,05,27,12,37,18.50
2017,05,27,12,38,18.40
2017,05,27,12,39,18.40
2017,05,27,12,40,18.40
2017,05,27,12,41,18.50
2017,05,27,12,42,18.60
2017,05,27,12,43,18.60
2017,05,27,12,44,18.60
2017,05,27,12,45,18.50
2017,05,27,12,46,18.50
2017,05,27,12,47,18.40
2017,05,27,12,48,18.40
2017,05,27,12,49,18.40
2017,05,27,12,50,18.40
2017,05,27,12,51,18.30
2017,05,27,12,52,18.20
2017,05,27,12,53,18.20
2017,05,27,12,54,18.20
2017,05,27,12,55,18.20
2017,05,27,12,56,18.20
2017,05,27,12,57,18.20
2017,05,27,12,58,18.20
2017,05,27,12,59,18.30
2017,05,27,13,00,18.30
2017,05,27,13,01,18.30
2017,05,27,13,02,18.30
2017,05,27,13,03,18.50
2017,05,27,13,04,18.50
2017,05,27,13,05,18.60
2017,05,27,13,06,18.60
2017,05,27,13,07,18.70
2017,05,27,13,08,18.70
2017,05,27,13,09,18.80
2017,05,27,13,10,18.80
2017,05,27,13,11,18.80
2017,05,27,13,12,18.90
2017,05,27,13,13,19.00
2017,05,27,13,14,19.10
2017,05,27,13,15,19.10
2017,05,27,13,16,19.10
2017,05,27,13,17,19.10
2017,05,27,13,18,19.00
2017,05,27,13,19,18.90
2017,05,27,13,20,18.90
2017,05,27,13,21,19.00
2017,05,27,13,22,19.10
2017,05,27,13,23,19.10
2017,05,27,13,24,19.10
2017,05,27,13,25,19.20
2017,05,27,13,26,19.30
2017,05,27,13,27,19.30
2017,05,27,13,28,19.30
2017,05,27,13,29,19.30
2017,05,27,13,30,19.20
2017,05,27,13,31,19.10
2017,05,27,13,32,19.10
2017,05,27,13,33,19.00
2017,05,27,13,34,18.90
2017,05,27,13,35,18.90
2017,05,27,13,36,19.00
2017,05,27,13,37,19.10
2017,05,27,13,38,19.20
2017,05,27,13,39,19.40
2017,05,27,13,40,19.50
2017,05,27,13,41,19.60
2017,05,27,13,42,19.70
2017,05,27,13,43,19.90
2017,05,27,13,44,19.90
2017,05,27,13,45,19.90
2017,05,27,13,46,19.90
2017,05,27,13,47,19.90
2017,05,27,13,48,19.90
2017,05,27,13,49,19.80
2017,05,27,13,50,19.80
2017,05,27,13,51,19.80
2017,05,27,13,52,19.90
2017,05,27,13,53,19.90
2017,05,27,13,54,20.00
2017,05,27,13,55,20.10
2017,05,27,13,56,20.30
2017,05,27,13,57,20.30
2017,05,27,13,58,20.30
2017,05,27,13,59,20.40
2017,05,27,14,00,20.50
2017,05,27,14,01,20.60
2017,05,27,14,02,20.70
2017,05,27,14,03,20.70
2017,05,27,14,04,20.90
2017,05,27,14,05,21.10
2017,05,27,14,06,21.20
2017,05,27,14,07,21.30
2017,05,27,14,08,21.30
2017,05,27,14,09,21.40
2017,05,27,14,10,21.60
2017,05,27,14,11,21.60
2017,05,27,14,12,21.60
2017,05,27,14,13,21.60
2017,05,27,14,14,21.60
2017,05,27,14,15,21.70
2017,05,27,14,16,21.70
2017,05,27,14,17,21.80
2017,05,27,14,18,21.90
2017,05,27,14,19,21.90
2017,05,27,14,20,22.00
2017,05,27,14,21,22.10
2017,05,27,14,22,22.20
2017,05,27,14,23,22.30
2017,05,27,14,24,22.30
2017,05,27,14,25,22.40
2017,05,27,14,26,22.50
2017,05,27,14,27,22.60
2017,05,27,14,28,22.70
2017,05,27,14,29,22.70
2017,05,27,14,30,22.80
2017,05,27,14,31,22.90
2017,05,27,14,32,22.90
2017,05,27,14,33,23.00
2017,05,27,14,34,23.10
2017,05,27,14,35,23.00
2017,05,27,14,36,22.90
2017,05,27,14,37,22.90
2017,05,27,14,38,22.80
2017,05,27,14,39,22.70
2017,05,27,14,40,22.60
2017,05,27,14,41,22.60
2017,05,27,14,42,22.60
2017,05,27,14,43,22.50
2017,05,27,14,44,22.40
2017,05,27,14,45,22.40
2017,05,27,14,46,22.40
2017,05,27,14,47,22.40
2017,05,27,14,48,22.30
2017,05,27,14,49,22.20
2017,05,27,14,50,22.10
2017,05,27,14,51,22.00
2017,05,27,14,52,22.00
2017,05,27,14,53,22.00
2017,05,27,14,54,22.00
2017,05,27,14,55,21.90
2017,05,27,14,56,21.90
2017,05,27,14,57,21.90
2017,05,27,14,58,21.90
2017,05,27,14,59,21.90
2017,05,27,15,00,21.90
2017,05,27,15,01,21.90
2017,05,27,15,02,21.90
2017,05,27,15,03,21.80
2017,05,27,15,04,21.70
2017,05,27,15,05,21.60
2017,05,27,15,06,21.60
2017,05,27,15,07,21.60
2017,05,27,15,08,21.50
2017,05,27,15,09,21.40
2017,05,27,15,10,21.40
2017,05,27,15,11,21.40
2017,05,27,15,12,21.30
2017,05,27,15,13,21.30
2017,05,27,15,14,21.30
2017,05,27,15,15,21.30
2017,05,27,15,16,21.40
2017,05,27,15,17,21.50
2017,05,27,15,18,21.60
2017,05,27,15,19,21.80
2017,05,27,15,20,21.80
2017,05,27,15,21,21.90
2017,05,27,15,22,21.90
2017,05,27,15,23,21.90
2017,05,27,15,24,21.90
2017,05,27,15,25,21.90
2017,05,27,15,26,22.00
2017,05,27,15,27,22.00
2017,05,27,15,28,21.90
2017,05,27,15,29,22.00
2017,05,27,15,30,22.00
2017,05,27,15,31,22.00
2017,05,27,15,32,22.00
2017,05,27,15,33,21.90
2017,05,27,15,34,21.80
2017,05,27,15,35,21.80
2017,05,27,15,36,21.70
2017,05,27,15,37,21.60
2017,05,27,15,38,21.60
2017,05,27,15,39,21.60
2017,05,27,15,40,21.70
2017,05,27,15,41,21.80
2017,05,27,15,42,21.80
2017,05,27,15,43,21.90
2017,05,27,15,44,22.00
2017,05,27,15,45,22.10
2017,05,27,15,46,22.00
2017,05,27,15,47,22.10
2017,05,27,15,48,22.00
2017,05,27,15,49,22.00
2017,05,27,15,50,22.10
2017,05,27,15,51,22.00
2017,05,27,15,52,22.00
2017,05,27,15,53,22.00
2017,05,27,15,54,22.00
2017,05,27,15,55,22.00
2017,05,27,15,56,22.10
2017,05,27,15,57,22.10
2017,05,27,15,58,22.20
2017,05,27,15,59,22.40
2017,05,27,16,00,22.60
2017,05,27,16,01,22.70
2017,05,27,16,02,22.80
2017,05,27,16,03,22.90
2017,05,27,16,04,23.00
2017,05,27,16,05,23.10
2017,05,27,16,06,23.10
2017,05,27,16,07,23.00
2017,05,27,16,08,22.90
2017,05,27,16,09,22.90
2017,05,27,16,10,23.10
2017,05,27,16,11,23.10
2017,05,27,16,12,23.00
2017,05,27,16,13,22.90
2017,05,27,16,14,22.90
2017,05,27,16,15,22.90
2017,05,27,16,16,22.80
2017,05,27,16,17,22.90
2017,05,27,16,18,22.90
2017,05,27,16,19,22.90
2017,05,27,16,20,22.90
2017,05,27,16,21,22.90
2017,05,27,16,22,23.00
2017,05,27,16,23,23.10
2017,05,27,16,24,23.00
2017,05,27,16,25,23.10
2017,05,27,16,26,23.10
2017,05,27,16,27,23.00
2017,05,27,16,28,22.80
2017,05,27,16,29,22.70
2017,05,27,16,30,22.60
2017,05,27,16,31,22.50
2017,05,27,16,32,22.50
2017,05,27,16,33,22.50
2017,05,27,16,34,22.60
2017,05,27,16,35,22.50
2017,05,27,16,36,22.50
2017,05,27,16,37,22.50
2017,05,27,16,38,22.50
2017,05,27,16,39,22.40
2017,05,27,16,40,22.40
2017,05,27,16,41,22.40
2017,05,27,16,42,22.40
2017,05,27,16,43,22.50
2017,05,27,16,44,22.50
2017,05,27,16,45,22.60
2017,05,27,16,46,22.50
2017,05,27,16,47,22.50
2017,05,27,16,48,22.40
2017,05,27,16,49,22.50
2017,05,27,16,50,22.40
2017,05,27,16,51,22.30
2017,05,27,16,52,22.20
2017,05,27,16,53,22.00
2017,05,27,16,54,22.00
2017,05,27,16,55,21.90
2017,05,27,16,56,21.90
2017,05,27,16,57,21.90
2017,05,27,16,58,22.00
2017,05,27,16,59,22.00
2017,05,27,17,00,22.10
2017,05,27,17,01,22.10
2017,05,27,17,02,22.20
2017,05,27,17,03,22.30
2017,05,27,17,04,22.40
2017,05,27,17,05,22.50
2017,05,27,17,06,22.60
2017,05,27,17,07,22.60
2017,05,27,17,08,22.60
2017,05,27,17,09,22.60
2017,05,27,17,10,22.50
2017,05,27,17,11,22.40
2017,05,27,17,12,22.40
2017,05,27,17,13,22.40
2017,05,27,17,14,22.30
2017,05,27,17,15,22.30
2017,05,27,17,16,22.20
2017,05,27,17,17,22.20
2017,05,27,17,18,22.10
2017,05,27,17,19,22.10